TimeCDT,TemperatureF,Dew PointF,Humidity,Sea Level PressureIn,VisibilityMPH,Wind Direction,Wind SpeedMPH,Gust SpeedMPH,PrecipitationIn,Events,Conditions,WindDirDegrees,DateUTC
12:53 AM,50.0,43.0,77,29.78,10.0,South,17.3,23.0,N/A,,Clear,180,2014-03-19 05:53:00
1:53 AM,50.0,43.0,77,29.79,10.0,South,16.1,23.0,N/A,,Scattered Clouds,180,2014-03-19 06:53:00
2:53 AM,48.9,43.0,80,29.78,10.0,South,12.7,-,N/A,,Overcast,190,2014-03-19 07:53:00
3:53 AM,50.0,44.1,80,29.78,10.0,South,10.4,-,N/A,,Clear,190,2014-03-19 08:53:00
4:53 AM,53.1,46.9,80,29.78,10.0,SSW,17.3,24.2,N/A,,Clear,210,2014-03-19 09:53:00
5:53 AM,53.1,46.9,80,29.81,10.0,SW,18.4,26.5,N/A,,Clear,220,2014-03-19 10:53:00
6:53 AM,52.0,46.9,83,29.86,10.0,WSW,12.7,-,N/A,,Mostly Cloudy,250,2014-03-19 11:53:00
7:01 AM,53.6,46.4,77,29.86,10.0,West,16.1,21.9,N/A,,Mostly Cloudy,260,2014-03-19 12:01:00
7:53 AM,48.9,34.0,56,29.92,10.0,WNW,15.0,21.9,N/A,,Mostly Cloudy,300,2014-03-19 12:53:00
8:53 AM,48.9,34.0,56,29.96,10.0,West,11.5,-,N/A,,Clear,270,2014-03-19 13:53:00
9:53 AM,50.0,34.0,54,29.99,10.0,West,18.4,26.5,N/A,,Clear,280,2014-03-19 14:53:00
10:53 AM,53.1,36.0,52,30.02,10.0,WNW,15.0,23.0,N/A,,Clear,290,2014-03-19 15:53:00
11:53 AM,55.9,37.9,51,30.03,10.0,West,16.1,21.9,N/A,,Clear,280,2014-03-19 16:53:00
12:53 PM,57.0,39.0,51,30.04,10.0,NW,15.0,25.3,N/A,,Clear,320,2014-03-19 17:53:00
1:53 PM,57.0,37.9,49,30.05,10.0,NW,13.8,24.2,N/A,,Clear,310,2014-03-19 18:53:00
2:53 PM,57.0,36.0,45,30.05,10.0,WNW,17.3,23.0,N/A,,Clear,300,2014-03-19 19:53:00
3:53 PM,57.0,36.0,45,30.06,10.0,NW,11.5,20.7,N/A,,Clear,310,2014-03-19 20:53:00
4:53 PM,57.9,36.0,44,30.06,10.0,NW,12.7,19.6,N/A,,Clear,320,2014-03-19 21:53:00
5:53 PM,57.0,34.0,42,30.07,10.0,NW,10.4,-,N/A,,Clear,320,2014-03-19 22:53:00
6:53 PM,55.0,34.0,45,30.09,10.0,WNW,5.8,-,N/A,,Clear,300,2014-03-19 23:53:00
7:53 PM,50.0,34.0,54,30.12,10.0,West,3.5,-,N/A,,Clear,280,2014-03-20 00:53:00
8:53 PM,50.0,35.1,57,30.13,10.0,WNW,4.6,-,N/A,,Clear,290,2014-03-20 01:53:00
9:53 PM,48.9,33.1,54,30.15,10.0,WNW,4.6,-,N/A,,Clear,290,2014-03-20 02:53:00
10:53 PM,46.9,32.0,56,30.17,10.0,NW,5.8,-,N/A,,Clear,310,2014-03-20 03:53:00
11:53 PM,46.0,32.0,58,30.17,10.0,NW,4.6,-,N/A,,Clear,310,2014-03-20 04:53:00